"read_dt","SO2 (ppb)","flags","PMT voltage (V)","lamp voltage (V)","lamp intensity (Hz)","internal temp (C)","react chamber temp (C)","sample flow (l/min)","pres (mmHg)","SO2 bkg (ppb)","SO2 coefficient"
2016-03-14 00:00:00,1741E-3,5C000400,-0724,0835,12236,022.1,045.3,0.266,764.9,01.16,0.508
2016-03-14 00:01:00,1756E-3,5C000400,-0724,0835,12167,022.1,045.3,0.266,764.9,01.16,0.508
2016-03-14 00:02:00,1746E-3,5C000400,-0724,0835,12074,022.1,045.3,0.266,764.9,01.16,0.508
2016-03-14 00:03:00,1735E-3,5C000400,-0724,0835,12172,022.1,045.3,0.265,764.9,01.16,0.508
2016-03-14 00:04:00,1733E-3,5C000400,-0724,0834,12067,022.1,045.3,0.266,764.9,01.16,0.508
2016-03-14 00:05:00,1812E-3,5C000400,-0724,0835,12138,022.1,045.3,0.266,764.9,01.16,0.508
2016-03-14 00:06:00,1712E-3,5C000400,-0724,0836,12318,022.1,045.3,0.266,764.9,01.16,0.508
2016-03-14 00:07:00,1923E-3,5C000400,-0724,0835,12147,022.1,045.3,0.266,764.9,01.16,0.508
2016-03-14 00:08:00,1596E-3,5C000400,-0724,0835,11908,022.1,045.3,0.266,764.9,01.16,0.508
2016-03-14 00:09:00,1851E-3,5C000400,-0724,0835,12128,022.1,045.3,0.266,764.9,01.16,0.508
2016-03-14 00:10:00,1762E-3,5C000400,-0724,0835,12123,022.1,045.3,0.265,764.9,01.16,0.508
2016-03-14 00:11:00,1726E-3,5C000400,-0724,0834,12083,022.1,045.3,0.265,764.9,01.16,0.508
2016-03-14 00:12:00,1767E-3,5C000400,-0724,0834,12155,022.1,045.3,0.266,764.9,01.16,0.508
2016-03-14 00:13:00,1744E-3,5C000400,-0724,0834,12197,022.1,045.3,0.266,764.9,01.16,0.508
2016-03-14 00:14:00,1742E-3,5C000400,-0724,0835,12076,022.1,045.3,0.266,764.9,01.16,0.508
2016-03-14 00:15:00,1682E-3,5C000400,-0724,0834,12246,022.1,045.3,0.266,764.9,01.16,0.508
2016-03-14 00:16:00,1693E-3,5C000400,-0724,0835,12214,022.1,045.3,0.266,764.9,01.16,0.508
2016-03-14 00:17:00,1768E-3,5C000400,-0724,0835,12159,022.1,045.3,0.266,764.9,01.16,0.508
2016-03-14 00:18:00,1819E-3,5C000400,-0724,0835,12215,022.1,045.3,0.266,764.9,01.16,0.508
2016-03-14 00:19:00,1787E-3,5C000400,-0724,0834,12012,022.1,045.3,0.266,764.9,01.16,0.508
2016-03-14 00:20:00,1628E-3,5C000400,-0724,0834,12116,022.1,045.3,0.266,764.9,01.16,0.508
2016-03-14 00:21:00,1867E-3,5C000400,-0724,0834,12183,022.1,045.3,0.266,764.9,01.16,0.508
2016-03-14 00:22:00,1776E-3,5C000400,-0724,0835,12181,022.1,045.3,0.266,764.9,01.16,0.508
2016-03-14 00:23:00,1794E-3,5C000400,-0724,0835,12071,022.1,045.3,0.266,764.9,01.16,0.508
2016-03-14 00:24:00,1731E-3,5C000400,-0724,0835,12224,022.1,045.3,0.266,764.9,01.16,0.508
2016-03-14 00:25:00,1846E-3,5C000400,-0724,0835,12110,022.1,045.3,0.266,764.9,01.16,0.508
2016-03-14 00:26:00,1781E-3,5C000400,-0724,0834,12161,022.1,045.3,0.266,764.9,01.16,0.508
2016-03-14 00:27:00,1778E-3,5C000400,-0724,0834,12040,022.1,045.3,0.266,764.9,01.16,0.508
2016-03-14 00:28:00,1768E-3,5C000400,-0724,0835,12194,022.1,045.3,0.266,764.9,01.16,0.508
2016-03-14 00:29:00,1657E-3,5C000400,-0724,0834,12197,022.1,045.3,0.266,764.9,01.16,0.508
2016-03-14 00:30:00,1716E-3,5C000400,-0724,0834,12130,022.1,045.3,0.265,764.9,01.16,0.508
2016-03-14 00:31:00,1778E-3,5C000400,-0724,0835,12138,022.1,045.3,0.265,764.9,01.16,0.508
2016-03-14 00:32:00,1764E-3,5C000400,-0724,0835,12187,022.1,045.3,0.266,764.9,01.16,0.508
2016-03-14 00:33:00,1796E-3,5C000400,-0724,0835,12115,022.1,045.3,0.266,764.8,01.16,0.508
2016-03-14 00:34:00,1689E-3,5C000400,-0724,0835,12050,022.1,045.3,0.266,764.9,01.16,0.508
2016-03-14 00:35:00,1641E-3,5C000400,-0724,0835,12213,022.1,045.3,0.266,764.8,01.16,0.508
2016-03-14 00:36:00,1799E-3,5C000400,-0724,0835,12133,022.1,045.3,0.266,764.9,01.16,0.508
2016-03-14 00:37:00,1802E-3,5C000400,-0724,0834,12077,022.1,045.3,0.266,764.8,01.16,0.508
2016-03-14 00:38:00,1785E-3,5C000400,-0724,0835,12132,022.1,045.3,0.266,764.8,01.16,0.508
2016-03-14 00:39:00,1777E-3,5C000400,-0724,0836,12142,022.1,045.3,0.266,764.8,01.16,0.508
2016-03-14 00:40:00,1782E-3,5C000400,-0724,0834,12103,022.1,045.3,0.265,764.8,01.16,0.508
2016-03-14 00:41:00,1744E-3,5C000400,-0724,0834,12221,022.1,045.3,0.265,764.8,01.16,0.508
2016-03-14 00:42:00,1692E-3,5C000400,-0724,0835,12028,022.2,045.3,0.266,764.8,01.16,0.508
2016-03-14 00:43:00,1767E-3,5C000400,-0724,0834,12027,022.1,045.3,0.266,764.8,01.16,0.508
2016-03-14 00:44:00,1732E-3,5C000400,-0724,0835,11905,022.1,045.3,0.266,764.8,01.16,0.508
2016-03-14 00:45:00,1641E-3,5C000400,-0724,0835,12002,022.2,045.3,0.266,764.8,01.16,0.508
2016-03-14 00:46:00,1849E-3,5C000400,-0724,0834,12199,022.1,045.3,0.265,764.8,01.16,0.508
2016-03-14 00:47:00,1757E-3,5C000400,-0724,0835,12118,022.2,045.3,0.266,764.8,01.16,0.508
2016-03-14 00:48:00,1827E-3,5C000400,-0724,0836,12029,022.2,045.3,0.266,764.8,01.16,0.508
2016-03-14 00:49:00,1660E-3,5C000400,-0724,0834,12061,022.2,045.3,0.266,764.8,01.16,0.508
2016-03-14 00:50:00,1685E-3,5C000400,-0724,0835,11996,022.2,045.2,0.266,764.8,01.16,0.508
2016-03-14 00:51:00,1693E-3,5C000400,-0724,0834,12024,022.2,045.2,0.266,764.8,01.16,0.508
2016-03-14 00:52:00,1738E-3,5C000400,-0724,0835,12285,022.2,045.3,0.266,764.8,01.16,0.508
2016-03-14 00:53:00,1824E-3,5C000400,-0724,0835,12218,022.2,045.3,0.265,764.8,01.16,0.508
2016-03-14 00:54:00,1810E-3,5C000400,-0724,0834,12113,022.2,045.3,0.266,764.8,01.16,0.508
2016-03-14 00:55:00,1824E-3,5C000400,-0724,0835,12121,022.2,045.3,0.266,764.8,01.16,0.508
2016-03-14 00:56:00,1724E-3,5C000400,-0724,0835,12157,022.2,045.3,0.265,764.8,01.16,0.508
2016-03-14 00:57:00,1713E-3,5C000400,-0724,0835,12202,022.2,045.3,0.266,764.8,01.16,0.508
2016-03-14 00:58:00,1802E-3,5C000400,-0724,0835,12221,022.2,045.3,0.266,764.8,01.16,0.508
2016-03-14 00:59:00,1734E-3,5C000400,-0724,0835,12205,022.2,045.3,0.266,764.8,01.16,0.508
2016-03-14 01:00:00,1906E-3,5C000400,-0724,0834,12015,022.2,045.3,0.265,764.7,01.16,0.508
2016-03-14 01:01:00,1776E-3,5C000400,-0724,0835,12041,022.2,045.3,0.266,764.7,01.16,0.508
2016-03-14 01:02:00,1729E-3,5C000400,-0724,0835,12096,022.2,045.3,0.266,764.7,01.16,0.508
2016-03-14 01:03:00,1771E-3,5C000400,-0724,0835,12072,022.2,045.3,0.265,764.7,01.16,0.508
2016-03-14 01:04:00,1698E-3,5C000400,-0724,0835,12164,022.2,045.3,0.265,764.7,01.16,0.508
2016-03-14 01:05:00,1724E-3,5C000400,-0724,0834,12204,022.2,045.3,0.266,764.7,01.16,0.508
2016-03-14 01:06:00,1722E-3,5C000400,-0724,0834,12247,022.2,045.3,0.266,764.7,01.16,0.508
2016-03-14 01:07:00,1786E-3,5C000400,-0724,0834,12320,022.2,045.3,0.266,764.7,01.16,0.508
2016-03-14 01:08:00,1838E-3,5C000400,-0724,0834,12207,022.2,045.3,0.266,764.7,01.16,0.508
2016-03-14 01:09:00,1824E-3,5C000400,-0724,0834,12193,022.2,045.3,0.266,764.7,01.16,0.508
2016-03-14 01:10:00,1745E-3,5C000400,-0724,0835,12187,022.2,045.3,0.265,764.7,01.16,0.508
2016-03-14 01:11:00,1719E-3,5C000400,-0724,0835,12217,022.2,045.3,0.265,764.7,01.16,0.508
2016-03-14 01:12:00,1835E-3,5C000400,-0724,0835,12141,022.2,045.3,0.265,764.7,01.16,0.508
2016-03-14 01:13:00,1719E-3,5C000400,-0724,0835,12115,022.2,045.3,0.265,764.7,01.16,0.508
2016-03-14 01:14:00,1780E-3,5C000400,-0724,0835,12205,022.2,045.3,0.266,764.7,01.16,0.508
2016-03-14 01:15:00,1838E-3,5C000400,-0724,0835,12138,022.2,045.3,0.266,764.7,01.16,0.508
2016-03-14 01:16:00,1744E-3,5C000400,-0724,0835,12087,022.3,045.3,0.266,764.7,01.16,0.508
2016-03-14 01:17:00,1698E-3,5C000400,-0724,0835,12047,022.3,045.3,0.265,764.7,01.16,0.508
2016-03-14 01:18:00,1850E-3,5C000400,-0724,0835,12190,022.2,045.2,0.265,764.7,01.16,0.508
2016-03-14 01:19:00,1742E-3,5C000400,-0724,0834,12265,022.3,045.2,0.265,764.7,01.16,0.508
2016-03-14 01:20:00,1827E-3,5C000400,-0724,0835,12110,022.3,045.3,0.266,764.7,01.16,0.508
2016-03-14 01:21:00,1704E-3,5C000400,-0724,0835,12230,022.3,045.2,0.266,764.7,01.16,0.508
2016-03-14 01:22:00,1804E-3,5C000400,-0724,0836,12080,022.2,045.3,0.266,764.7,01.16,0.508
2016-03-14 01:23:00,1768E-3,5C000400,-0724,0834,12201,022.3,045.3,0.265,764.7,01.16,0.508
2016-03-14 01:24:00,1729E-3,5C000400,-0724,0836,12136,022.3,045.3,0.265,764.7,01.16,0.508
2016-03-14 01:25:00,1799E-3,5C000400,-0724,0835,12018,022.3,045.3,0.265,764.7,01.16,0.508
2016-03-14 01:26:00,1846E-3,5C000400,-0724,0834,12228,022.3,045.3,0.265,764.7,01.16,0.508
2016-03-14 01:27:00,1838E-3,5C000400,-0724,0835,12022,022.3,045.3,0.266,764.7,01.16,0.508
2016-03-14 01:28:00,1873E-3,5C000400,-0724,0835,12097,022.3,045.3,0.266,764.7,01.16,0.508
2016-03-14 01:29:00,1833E-3,5C000400,-0724,0835,11998,022.3,045.3,0.266,764.7,01.16,0.508
2016-03-14 01:30:00,1825E-3,5C000400,-0724,0834,12028,022.3,045.3,0.265,764.7,01.16,0.508
2016-03-14 01:31:00,1796E-3,5C000400,-0724,0834,12218,022.3,045.3,0.265,764.7,01.16,0.508
2016-03-14 01:32:00,1877E-3,5C000400,-0724,0835,12160,022.3,045.3,0.265,764.8,01.16,0.508
2016-03-14 01:33:00,1691E-3,5C000400,-0724,0835,12253,022.3,045.3,0.265,764.7,01.16,0.508
2016-03-14 01:34:00,1694E-3,5C000400,-0724,0835,12229,022.3,045.3,0.265,764.7,01.16,0.508
2016-03-14 01:35:00,1738E-3,5C000400,-0724,0835,12120,022.3,045.3,0.265,764.7,01.16,0.508
2016-03-14 01:36:00,1729E-3,5C000400,-0724,0835,12147,022.3,045.3,0.265,764.7,01.16,0.508
2016-03-14 01:37:00,1746E-3,5C000400,-0724,0835,12128,022.3,045.3,0.265,764.7,01.16,0.508
2016-03-14 01:38:00,1801E-3,5C000400,-0724,0835,12082,022.3,045.3,0.265,764.7,01.16,0.508
2016-03-14 01:39:00,1618E-3,5C000400,-0724,0835,12181,022.3,045.3,0.265,764.7,01.16,0.508
2016-03-14 01:40:00,1726E-3,5C000400,-0724,0836,12130,022.3,045.3,0.265,764.7,01.16,0.508
2016-03-14 01:41:00,1755E-3,5C000400,-0724,0835,12098,022.4,045.3,0.265,764.7,01.16,0.508
2016-03-14 01:42:00,1738E-3,5C000400,-0724,0835,12150,022.4,045.3,0.265,764.7,01.16,0.508
2016-03-14 01:43:00,1758E-3,5C000400,-0724,0834,12243,022.3,045.3,0.265,764.7,01.16,0.508
2016-03-14 01:44:00,1726E-3,5C000400,-0724,0835,11929,022.4,045.3,0.265,764.7,01.16,0.508
2016-03-14 01:45:00,1766E-3,5C000400,-0724,0834,12219,022.4,045.3,0.265,764.7,01.16,0.508
2016-03-14 01:46:00,1717E-3,5C000400,-0724,0835,12264,022.4,045.3,0.265,764.7,01.16,0.508
2016-03-14 01:47:00,1845E-3,5C000400,-0724,0835,11992,022.4,045.3,0.266,764.7,01.16,0.508
2016-03-14 01:48:00,1831E-3,5C000400,-0724,0835,12168,022.4,045.3,0.265,764.7,01.16,0.508
2016-03-14 01:49:00,1898E-3,5C000400,-0724,0835,12121,022.4,045.3,0.265,764.7,01.16,0.508
2016-03-14 01:50:00,1824E-3,5C000400,-0724,0835,12160,022.4,045.3,0.265,764.7,01.16,0.508
2016-03-14 01:51:00,1764E-3,5C000400,-0724,0834,12155,022.4,045.3,0.265,764.7,01.16,0.508
2016-03-14 01:52:00,1726E-3,5C000400,-0724,0835,12118,022.4,045.3,0.265,764.7,01.16,0.508
2016-03-14 01:53:00,1828E-3,5C000400,-0724,0835,12119,022.4,045.3,0.265,764.7,01.16,0.508
2016-03-14 01:54:00,1799E-3,5C000400,-0724,0835,12098,022.4,045.3,0.265,764.7,01.16,0.508
2016-03-14 01:55:00,1783E-3,5C000400,-0724,0835,12110,022.4,045.3,0.265,764.7,01.16,0.508
2016-03-14 01:56:00,1791E-3,5C000400,-0724,0835,12172,022.4,045.3,0.265,764.7,01.16,0.508
2016-03-14 01:57:00,1821E-3,5C000400,-0724,0835,12165,022.4,045.3,0.265,764.7,01.16,0.508
2016-03-14 01:58:00,1771E-3,5C000400,-0724,0835,12192,022.4,045.3,0.265,764.7,01.16,0.508
2016-03-14 01:59:00,1768E-3,5C000400,-0724,0835,12000,022.4,045.3,0.265,764.7,01.16,0.508
2016-03-14 02:00:00,1921E-3,5C000400,-0724,0835,12210,022.4,045.3,0.265,764.7,01.16,0.508
2016-03-14 02:01:00,1695E-3,5C000400,-0724,0835,12069,022.4,045.3,0.265,764.7,01.16,0.508
2016-03-14 02:02:00,1773E-3,5C000400,-0724,0835,12317,022.5,045.3,0.265,764.7,01.16,0.508
2016-03-14 02:03:00,1832E-3,5C000400,-0724,0835,12123,022.5,045.3,0.265,764.7,01.16,0.508
2016-03-14 02:04:00,1659E-3,5C000400,-0724,0835,12210,022.5,045.3,0.265,764.7,01.16,0.508
2016-03-14 02:05:00,1791E-3,5C000400,-0724,0835,12161,022.5,045.3,0.265,764.7,01.16,0.508
2016-03-14 02:06:00,1756E-3,5C000400,-0724,0835,12179,022.5,045.3,0.265,764.7,01.16,0.508
2016-03-14 02:07:00,1792E-3,5C000400,-0724,0836,12044,022.5,045.3,0.265,764.7,01.16,0.508
2016-03-14 02:08:00,1874E-3,5C000400,-0724,0835,12222,022.5,045.3,0.265,764.7,01.16,0.508
2016-03-14 02:09:00,1808E-3,5C000400,-0724,0836,12345,022.5,045.3,0.265,764.7,01.16,0.508
2016-03-14 02:10:00,1735E-3,5C000400,-0724,0835,12217,022.5,045.3,0.265,764.6,01.16,0.508
2016-03-14 02:11:00,1833E-3,5C000400,-0724,0835,12131,022.5,045.3,0.265,764.6,01.16,0.508
2016-03-14 02:12:00,1821E-3,5C000400,-0724,0835,12154,022.5,045.3,0.265,764.6,01.16,0.508
2016-03-14 02:13:00,1828E-3,5C000400,-0724,0835,12142,022.5,045.3,0.265,764.6,01.16,0.508
2016-03-14 02:14:00,1800E-3,5C000400,-0724,0836,12088,022.5,045.3,0.265,764.5,01.16,0.508
2016-03-14 02:15:00,1702E-3,5C000400,-0724,0835,12202,022.5,045.3,0.265,764.5,01.16,0.508
2016-03-14 02:16:00,1706E-3,5C000400,-0724,0835,12011,022.5,045.3,0.265,764.5,01.16,0.508
2016-03-14 02:17:00,1626E-3,5C000400,-0724,0835,12127,022.6,045.3,0.265,764.5,01.16,0.508
2016-03-14 02:18:00,1737E-3,5C000400,-0724,0835,12038,022.6,045.3,0.265,764.5,01.16,0.508
2016-03-14 02:19:00,1783E-3,5C000400,-0724,0835,12221,022.6,045.3,0.265,764.5,01.16,0.508
2016-03-14 02:20:00,1716E-3,5C000400,-0724,0835,12206,022.6,045.3,0.265,764.5,01.16,0.508
2016-03-14 02:21:00,1714E-3,5C000400,-0724,0835,12124,022.6,045.3,0.265,764.5,01.16,0.508
2016-03-14 02:22:00,1755E-3,5C000400,-0724,0835,12050,022.6,045.3,0.265,764.5,01.16,0.508
2016-03-14 02:23:00,1682E-3,5C000400,-0724,0835,12259,022.6,045.3,0.265,764.5,01.16,0.508
2016-03-14 02:24:00,2001E-3,5C000400,-0724,0836,12255,022.6,045.3,0.265,764.5,01.16,0.508
2016-03-14 02:25:00,1882E-3,5C000400,-0724,0835,12160,022.6,045.3,0.265,764.5,01.16,0.508
2016-03-14 02:26:00,1669E-3,5C000400,-0724,0835,12086,022.6,045.3,0.265,764.5,01.16,0.508
2016-03-14 02:27:00,1776E-3,5C000400,-0724,0835,12083,022.6,045.3,0.265,764.5,01.16,0.508
2016-03-14 02:28:00,1833E-3,5C000400,-0724,0835,12125,022.6,045.3,0.265,764.5,01.16,0.508
2016-03-14 02:29:00,1622E-3,5C000400,-0724,0834,12089,022.6,045.3,0.265,764.5,01.16,0.508
2016-03-14 02:30:00,1814E-3,5C000400,-0724,0835,12117,022.6,045.3,0.265,764.5,01.16,0.508
2016-03-14 02:31:00,1665E-3,5C000400,-0724,0835,12250,022.6,045.3,0.265,764.5,01.16,0.508
2016-03-14 02:32:00,1752E-3,5C000400,-0724,0834,12269,022.6,045.3,0.264,764.5,01.16,0.508
2016-03-14 02:33:00,1758E-3,5C000400,-0724,0834,11955,022.7,045.3,0.264,764.5,01.16,0.508
2016-03-14 02:34:00,1959E-3,5C000400,-0724,0835,12111,022.7,045.3,0.264,764.5,01.16,0.508
2016-03-14 02:35:00,1773E-3,5C000400,-0724,0835,12121,022.7,045.3,0.264,764.5,01.16,0.508
2016-03-14 02:36:00,1822E-3,5C000400,-0724,0834,12130,022.7,045.3,0.264,764.5,01.16,0.508
2016-03-14 02:37:00,2001E-3,5C000400,-0724,0835,12049,022.7,045.3,0.264,764.5,01.16,0.508
2016-03-14 02:38:00,1797E-3,5C000400,-0724,0835,12191,022.7,045.3,0.264,764.5,01.16,0.508
2016-03-14 02:39:00,1746E-3,5C000400,-0724,0835,12071,022.7,045.3,0.264,764.5,01.16,0.508
2016-03-14 02:40:00,1768E-3,5C000400,-0724,0835,12168,022.7,045.3,0.264,764.5,01.16,0.508
2016-03-14 02:41:00,1858E-3,5C000400,-0724,0834,11924,022.7,045.3,0.264,764.5,01.16,0.508
2016-03-14 02:42:00,1748E-3,5C000400,-0724,0835,12152,022.7,045.3,0.265,764.4,01.16,0.508
2016-03-14 02:43:00,1808E-3,5C000400,-0724,0835,12074,022.8,045.3,0.265,764.4,01.16,0.508
2016-03-14 02:44:00,1726E-3,5C000400,-0724,0835,12034,022.7,045.3,0.265,764.4,01.16,0.508
2016-03-14 02:45:00,1720E-3,5C000400,-0724,0835,12154,022.7,045.3,0.265,764.4,01.16,0.508
2016-03-14 02:46:00,1687E-3,5C000400,-0724,0835,12099,022.8,045.3,0.264,764.5,01.16,0.508
2016-03-14 02:47:00,1743E-3,5C000400,-0724,0835,12270,022.8,045.3,0.264,764.4,01.16,0.508
2016-03-14 02:48:00,1805E-3,5C000400,-0724,0835,12128,022.8,045.3,0.265,764.5,01.16,0.508
2016-03-14 02:49:00,1675E-3,5C000400,-0724,0835,12068,022.8,045.3,0.265,764.4,01.16,0.508
2016-03-14 02:50:00,1855E-3,5C000400,-0724,0835,12049,022.8,045.3,0.265,764.4,01.16,0.508
2016-03-14 02:51:00,1741E-3,5C000400,-0724,0835,12080,022.8,045.3,0.265,764.4,01.16,0.508
2016-03-14 02:52:00,1894E-3,5C000400,-0724,0835,12141,022.8,045.3,0.264,764.4,01.16,0.508
2016-03-14 02:53:00,1876E-3,5C000400,-0724,0835,12083,022.8,045.3,0.265,764.4,01.16,0.508
2016-03-14 02:54:00,1750E-3,5C000400,-0724,0835,12059,022.8,045.3,0.265,764.4,01.16,0.508
2016-03-14 02:55:00,1681E-3,5C000400,-0724,0835,12005,022.8,045.3,0.264,764.4,01.16,0.508
2016-03-14 02:56:00,1741E-3,5C000400,-0724,0835,12198,022.8,045.3,0.265,764.4,01.16,0.508
2016-03-14 02:57:00,1860E-3,5C000400,-0724,0835,12212,022.8,045.3,0.265,764.4,01.16,0.508
2016-03-14 02:58:00,1781E-3,5C000400,-0724,0835,12105,022.8,045.3,0.264,764.4,01.16,0.508
2016-03-14 02:59:00,1793E-3,5C000400,-0724,0836,12231,022.8,045.3,0.265,764.4,01.16,0.508
2016-03-14 03:00:00,1813E-3,5C000400,-0724,0835,12115,022.8,045.3,0.264,764.4,01.16,0.508
2016-03-14 03:01:00,1736E-3,5C000400,-0724,0835,12196,022.8,045.3,0.265,764.4,01.16,0.508
2016-03-14 03:02:00,1714E-3,5C000400,-0724,0835,12192,022.8,045.3,0.264,764.4,01.16,0.508
2016-03-14 03:03:00,1678E-3,5C000400,-0724,0835,12100,022.8,045.3,0.265,764.4,01.16,0.508
2016-03-14 03:04:00,1779E-3,5C000400,-0724,0835,12115,022.9,045.3,0.264,764.4,01.16,0.508
2016-03-14 03:05:00,1725E-3,5C000400,-0724,0835,12223,022.8,045.3,0.265,764.4,01.16,0.508
2016-03-14 03:06:00,1779E-3,5C000400,-0724,0834,12154,022.9,045.3,0.264,764.4,01.16,0.508
2016-03-14 03:07:00,1773E-3,5C000400,-0724,0835,12204,022.9,045.3,0.265,764.4,01.16,0.508
2016-03-14 03:08:00,1837E-3,5C000400,-0724,0834,12222,022.9,045.3,0.264,764.4,01.16,0.508
2016-03-14 03:09:00,1726E-3,5C000400,-0724,0835,11935,022.9,045.3,0.264,764.4,01.16,0.508
2016-03-14 03:10:00,1786E-3,5C000400,-0724,0834,12101,022.9,045.3,0.265,764.4,01.16,0.508
2016-03-14 03:11:00,1636E-3,5C000400,-0724,0835,12182,022.9,045.3,0.265,764.4,01.16,0.508
2016-03-14 03:12:00,1771E-3,5C000400,-0724,0835,12201,022.9,045.3,0.264,764.4,01.16,0.508
2016-03-14 03:13:00,1770E-3,5C000400,-0724,0834,12143,022.9,045.3,0.264,764.4,01.16,0.508
2016-03-14 03:14:00,1633E-3,5C000400,-0724,0834,12083,022.9,045.3,0.264,764.4,01.16,0.508
2016-03-14 03:15:00,1939E-3,5C000400,-0724,0835,12323,022.9,045.3,0.264,764.4,01.16,0.508
2016-03-14 03:16:00,1798E-3,5C000400,-0724,0835,12136,022.9,045.3,0.264,764.4,01.16,0.508
2016-03-14 03:17:00,1795E-3,5C000400,-0724,0835,12095,023.0,045.3,0.264,764.4,01.16,0.508
2016-03-14 03:18:00,1733E-3,5C000400,-0724,0835,11995,023.0,045.3,0.264,764.4,01.16,0.508
2016-03-14 03:19:00,1666E-3,5C000400,-0724,0836,12150,023.0,045.3,0.265,764.4,01.16,0.508
2016-03-14 03:20:00,1824E-3,5C000400,-0724,0835,12273,023.0,045.3,0.264,764.4,01.16,0.508
2016-03-14 03:21:00,1634E-3,5C000400,-0724,0835,12171,023.0,045.3,0.264,764.5,01.16,0.508
2016-03-14 03:22:00,1710E-3,5C000400,-0724,0835,12268,023.0,045.3,0.264,764.4,01.16,0.508
2016-03-14 03:23:00,1649E-3,5C000400,-0724,0835,12191,023.0,045.3,0.264,764.5,01.16,0.508
2016-03-14 03:24:00,1633E-3,5C000400,-0724,0835,12124,023.0,045.3,0.264,764.4,01.16,0.508
2016-03-14 03:25:00,1643E-3,5C000400,-0724,0835,12140,023.0,045.3,0.264,764.4,01.16,0.508
2016-03-14 03:26:00,1739E-3,5C000400,-0724,0835,12034,023.0,045.3,0.264,764.4,01.16,0.508
2016-03-14 03:27:00,1672E-3,5C000400,-0724,0835,12205,023.0,045.3,0.264,764.4,01.16,0.508
2016-03-14 03:28:00,1773E-3,5C000400,-0724,0834,12143,023.0,045.3,0.264,764.4,01.16,0.508
2016-03-14 03:29:00,1688E-3,5C000400,-0724,0835,12024,023.1,045.3,0.264,764.4,01.16,0.508
2016-03-14 03:30:00,1884E-3,5C000400,-0724,0835,12068,023.0,045.3,0.264,764.4,01.16,0.508
2016-03-14 03:31:00,1785E-3,5C000400,-0724,0834,12055,023.0,045.3,0.264,764.4,01.16,0.508
2016-03-14 03:32:00,1843E-3,5C000400,-0724,0835,12079,023.1,045.3,0.264,764.3,01.16,0.508
2016-03-14 03:33:00,1792E-3,5C000400,-0724,0835,11962,023.1,045.3,0.264,764.3,01.16,0.508
2016-03-14 03:34:00,1796E-3,5C000400,-0724,0835,12115,023.1,045.3,0.264,764.3,01.16,0.508
2016-03-14 03:35:00,1617E-3,5C000400,-0724,0835,12047,023.1,045.3,0.264,764.3,01.16,0.508
2016-03-14 03:36:00,1775E-3,5C000400,-0724,0836,12000,023.1,045.3,0.264,764.3,01.16,0.508
2016-03-14 03:37:00,1680E-3,5C000400,-0724,0835,12092,023.1,045.3,0.264,764.4,01.16,0.508
2016-03-14 03:38:00,1860E-3,5C000400,-0724,0835,12005,023.1,045.3,0.264,764.4,01.16,0.508
2016-03-14 03:39:00,1685E-3,5C000400,-0724,0836,12349,023.1,045.3,0.264,764.3,01.16,0.508
2016-03-14 03:40:00,1751E-3,5C000400,-0724,0835,12183,023.1,045.3,0.264,764.4,01.16,0.508
2016-03-14 03:41:00,1847E-3,5C000400,-0724,0835,12202,023.1,045.3,0.264,764.4,01.16,0.508
2016-03-14 03:42:00,1648E-3,5C000400,-0724,0834,12098,023.1,045.3,0.264,764.3,01.16,0.508
2016-03-14 03:43:00,1605E-3,5C000400,-0724,0835,12116,023.1,045.3,0.264,764.3,01.16,0.508
2016-03-14 03:44:00,1821E-3,5C000400,-0724,0834,12090,023.1,045.3,0.264,764.3,01.16,0.508
2016-03-14 03:45:00,1674E-3,5C000400,-0724,0834,12160,023.2,045.3,0.264,764.3,01.16,0.508
2016-03-14 03:46:00,1644E-3,5C000400,-0724,0835,12215,023.2,045.3,0.264,764.3,01.16,0.508
2016-03-14 03:47:00,1821E-3,5C000400,-0724,0834,12107,023.2,045.3,0.264,764.3,01.16,0.508
2016-03-14 03:48:00,1736E-3,5C000400,-0724,0835,12149,023.2,045.3,0.264,764.3,01.16,0.508
2016-03-14 03:49:00,1693E-3,5C000400,-0724,0835,12225,023.2,045.3,0.264,764.3,01.16,0.508
2016-03-14 03:50:00,1867E-3,5C000400,-0724,0835,12122,023.2,045.3,0.264,764.3,01.16,0.508
2016-03-14 03:51:00,1804E-3,5C000400,-0724,0836,12179,023.2,045.3,0.264,764.3,01.16,0.508
2016-03-14 03:52:00,1738E-3,5C000400,-0724,0835,12019,023.2,045.3,0.264,764.3,01.16,0.508
2016-03-14 03:53:00,1784E-3,5C000400,-0724,0834,12113,023.3,045.3,0.264,764.3,01.16,0.508
2016-03-14 03:54:00,1835E-3,5C000400,-0724,0835,12049,023.2,045.3,0.263,764.3,01.16,0.508
2016-03-14 03:55:00,1795E-3,5C000400,-0724,0835,12158,023.3,045.3,0.264,764.3,01.16,0.508
2016-03-14 03:56:00,1823E-3,5C000400,-0724,0834,11994,023.3,045.3,0.264,764.3,01.16,0.508
2016-03-14 03:57:00,1698E-3,5C000400,-0724,0835,12291,023.3,045.3,0.264,764.3,01.16,0.508
2016-03-14 03:58:00,1771E-3,5C000400,-0724,0835,12198,023.3,045.3,0.264,764.3,01.16,0.508
2016-03-14 03:59:00,1641E-3,5C000400,-0724,0834,12144,023.3,045.3,0.263,764.3,01.16,0.508
2016-03-14 04:00:00,1788E-3,5C000400,-0724,0835,12080,023.3,045.3,0.264,764.3,01.16,0.508
2016-03-14 04:01:00,1703E-3,5C000400,-0724,0834,11990,023.3,045.3,0.264,764.3,01.16,0.508
2016-03-14 04:02:00,1796E-3,5C000400,-0724,0835,12188,023.3,045.3,0.264,764.3,01.16,0.508
2016-03-14 04:03:00,1792E-3,5C000400,-0724,0835,12101,023.3,045.3,0.264,764.3,01.16,0.508
2016-03-14 04:04:00,1814E-3,5C000400,-0724,0834,12271,023.3,045.3,0.264,764.3,01.16,0.508
2016-03-14 04:05:00,1660E-3,5C000400,-0724,0834,12189,023.3,045.3,0.264,764.3,01.16,0.508
2016-03-14 04:06:00,1765E-3,5C000400,-0724,0834,12108,023.3,045.3,0.264,764.2,01.16,0.508
2016-03-14 04:07:00,1648E-3,5C000400,-0724,0835,12283,023.3,045.3,0.264,764.2,01.16,0.508
2016-03-14 04:08:00,1766E-3,5C000400,-0724,0834,12122,023.4,045.3,0.263,764.2,01.16,0.508
2016-03-14 04:09:00,1690E-3,5C000400,-0724,0835,12244,023.4,045.3,0.263,764.2,01.16,0.508
2016-03-14 04:10:00,1737E-3,5C000400,-0724,0835,12200,023.4,045.3,0.263,764.2,01.16,0.508
2016-03-14 04:11:00,1825E-3,5C000400,-0724,0835,12139,023.4,045.3,0.263,764.2,01.16,0.508
2016-03-14 04:12:00,1721E-3,5C000400,-0724,0835,12083,023.4,045.3,0.264,764.2,01.16,0.508
2016-03-14 04:13:00,1735E-3,5C000400,-0724,0834,12155,023.4,045.3,0.264,764.2,01.16,0.508
2016-03-14 04:14:00,1738E-3,5C000400,-0724,0835,12141,023.5,045.3,0.264,764.2,01.16,0.508
2016-03-14 04:15:00,1815E-3,5C000400,-0724,0835,12065,023.4,045.3,0.264,764.2,01.16,0.508
2016-03-14 04:16:00,1723E-3,5C000400,-0724,0834,12245,023.5,045.3,0.264,764.2,01.16,0.508
2016-03-14 04:17:00,1837E-3,5C000400,-0724,0835,12130,023.5,045.3,0.264,764.2,01.16,0.508
2016-03-14 04:18:00,1849E-3,5C000400,-0724,0835,12197,023.5,045.3,0.264,764.2,01.16,0.508
2016-03-14 04:19:00,1901E-3,5C000400,-0724,0834,12311,023.5,045.3,0.263,764.2,01.16,0.508
2016-03-14 04:20:00,1715E-3,5C000400,-0724,0836,12148,023.5,045.3,0.263,764.2,01.16,0.508